Weather Roundup
Issued by NWS Springfield, MO

Home | Current Version | Previous Version | Text Only | Print | Product List | Glossary On
Versions: 1 2 3 4 5 6 7 8 9 10 11 12 13 14 15 16 17 18 19 20 21 22 23 24 25 26 27 28 29 30 31 32 33 34 35 36 37 38 39 40 41 42 43 44 45 46 47 48 49 50
000
NZUS99 KSGF 010207
HRRSGF

HOURLY WEATHER
NATIONAL WEATHER SERVICE SPRINGFIELD MO
900 PM CDT TUE JUN 30 2015

......SGF CWA......

CITY           SKY/WX    TMP DP  RH WIND       PRES   REMARKS
SPRINGFIELD    CLEAR     79  68  69 SE3       29.93S
JOPLIN         PTCLDY    82  72  71 SE7       29.91R
WEST PLAINS    PTCLDY    75  69  81 SW3       29.96R
ROLLA          MOCLDY    72  70  93 SW7       29.91R
OSAGE BEACH    PTCLDY    73  70  88 CALM      29.92R
BRANSON        CLEAR     77  72  83 CALM      29.97R

......SURROUNDING SGF CWA......

CITY           SKY/WX    TMP DP  RH WIND       PRES   REMARKS
CHANUTE        MOCLDY    82  70  66 SE6       29.87S
PARSONS        MOCLDY    84  70  62 S3        29.88S
COFFEYVILLE    MOCLDY    84  71  65 S7        29.87R
EMPORIA        PTCLDY    85  67  54 S10       29.84S
ROGERS AR      CLEAR     81  71  71 S3        29.96S HAZE
SILOAM SPRINGS CLEAR     79  68  69 S8        29.96R
HARRISON AR    CLEAR     78  72  81 S3        29.97R
NEAR YELLVILLE   N/A     79  72  78 CALM      29.92R

......KANSAS AND MISSOURI......

CITY           SKY/WX    TMP DP  RH WIND       PRES   REMARKS
KANSAS CTY INT CLOUDY    81  65  58 SE9       29.88F
DOWNTOWN KC    CLOUDY    82  66  58 E6        29.87R
COLUMBIA       MOCLDY    77  71  82 CALM      29.90R
SEDALIA        MOCLDY    77  70  79 SE3       29.91S
ST JOSEPH      CLOUDY    79  64  60 SE7       29.87S
ST LOUIS       MOCLDY    77  68  73 NW3       29.88R
SPIRIT OF STL  MOCLDY    75  72  90 CALM      29.87R
KIRKSVILLE     CLOUDY    72  69  90 CALM      29.90F
WICHITA        MOCLDY    84  59  42 S8        29.85S
TOPEKA         MOCLDY    82  68  62 E7        29.86R
OLATHE         MOCLDY    80  66  62 SE5       29.89R

......TENNESSEE......

CITY           SKY/WX    TMP DP  RH WIND       PRES   REMARKS
MEMPHIS        PTCLDY    78  71  79 SW6       29.96R
NASHVILLE      CLOUDY    77  70  79 SW6       29.94R

......ARKANSAS.......

CITY           SKY/WX    TMP DP  RH WIND       PRES   REMARKS
FAYETTEVILLE   CLEAR     77  74  90 CALM      29.96R
FT SMITH       CLEAR     86  70  58 SW5       29.91R HX  90
LITTLE ROCK    PTCLDY    83  70  64 SE5       29.94R

......OKLAHOMA.......

CITY           SKY/WX    TMP DP  RH WIND       PRES   REMARKS
TULSA          MOCLDY    89  70  53 S9        29.89S HX  94
PONCA CITY     MOCLDY    89  64  43 S6        29.87S HX  90
MCALESTER      CLEAR     83  74  74 S5        29.94R
OKLAHOMA CITY  MOCLDY    81  70  69 S7        29.93R

......IOWA............

CITY           SKY/WX    TMP DP  RH WIND       PRES   REMARKS
DES MOINES     CLOUDY    77  64  64 N3        29.88S
QUAD CITIES    MOCLDY    75  61  61 NE3       29.86R

......ILLINOIS........

CITY           SKY/WX    TMP DP  RH WIND       PRES   REMARKS
QUINCY         MOCLDY    74  68  81 W3        29.87S
CHICAGO        MOCLDY    60  55  83 NE7       29.89R




USA.gov is the U.S. government's official web portal to all federal, state and local government web resources and services.